Regional Weather Roundup
Issued by NWS

Home | Current Version | Previous Version | Graphics & Text | Print | Product List | Glossary On
Versions: 1 2 3 4 5 6 7 8 9 10 11 12 13 14 15 16 17 18 19 20 21 22 23 24 25 26 27 28 29 30 31 32 33 34 35 36 37 38 39 40 41 42 43 44 45 46 47 48 49 50
997
ASUS43 KBIS 221510
RWRND

NORTH DAKOTA REGIONAL WEATHER ROUNDUP
NATIONAL WEATHER SERVICE BISMARCK ND
1000 AM CDT FRI SEP 22 2017

NOTE: "FAIR" INDICATES FEW OR NO CLOUDS BELOW 12,000 FEET WITH NO
SIGNIFICANT WEATHER AND/OR OBSTRUCTIONS TO VISIBILITY.


NDZ001>003-009>011-017-221600-
NORTHWEST NORTH DAKOTA

CITY           SKY/WX    TMP DP  RH WIND       PRES   REMARKS
WILLISTON      CLOUDY    46  38  73 N9        30.00R
MINOT          CLOUDY    50  40  68 N16       29.90S
MINOT AFB      CLOUDY    48  38  69 N15       29.90S
$$

NDZ018>021-031>035-040>046-221600-
SOUTHWEST NORTH DAKOTA

CITY           SKY/WX    TMP DP  RH WIND       PRES   REMARKS
BISMARCK       CLOUDY    55  43  63 NE20G28   29.78F
DICKINSON      LGT RAIN  47  42  83 N14       29.89R
GARRISON         N/A     51  38  60 NE13G22   29.86R
HETTINGER ARPT CLOUDY    50  37  61 N23G29    29.82R
$$

NDZ004>008-012>016-024-026-027-054-221600-
NORTHEAST NORTH DAKOTA

CITY           SKY/WX    TMP DP  RH WIND       PRES   REMARKS
GRAND FORKS    CLOUDY    60  54  80 N18       29.80F
GRND FRKS AFB  CLOUDY    57  50  79 N16G24    29.81F
DEVILS LAKE    CLOUDY    54  44  69 NE15G22   29.84F
$$

NDZ022-023-025-028>030-036>039-047>053-221600-
SOUTHEAST NORTH DAKOTA

CITY           SKY/WX    TMP DP  RH WIND       PRES   REMARKS
FARGO          CLOUDY    65  61  87 NE8       29.75S
JAMESTOWN      CLOUDY    58  49  72 NE15G24   29.73F
$$





USA.gov is the U.S. government's official web portal to all federal, state and local government web resources and services.